Location: Tom
(33.0437°N, 96.9452°W)
Time: 21:43:34
(UTC-05:00)

N. Korean satellite - Pass Details

Date: 26 January 2019
Orbit: 457 x 508 km, 97.2° (Epoch: 22 April)

Event Time Altitude Azimuth Distance (km) Brightness Sun altitude
Rises 05:54:24 0° 28° (NNE) 2,589 10.5 -19.4°
Reaches altitude 10° 05:56:51 10° 44° (NE) 1,692 9.7 -18.9°
Maximum altitude 05:59:42 21° 96° (E) 1,131 9.3 -18.3°
Drops below altitude 10° 06:02:29 10° 147° (SSE) 1,659 9.9 -17.8°
Sets 06:04:52 0° 164° (SSE) 2,523 10.6 -17.3°
